SCP
3 4 4 3 3 3 3 4 4 4 4 4 4 4 4 3 3 3 3 3 3 2 2 2 1 2 2 2 2 2 2 2 2 3 3 2 2 2 2 1 1 1 1
3 4 4 3 3 4 5 5 5 5 4 4 4 4 4 4 3 3 3 3 3 2 2 2 2 2 2 2 2 2 3 3 3 3 3 2 2 2 1 1 1 1 1
3 3 3 3 3 5 6 6 5 5 5 5 4 4 4 4 4 4 4 4 3 2 2 2 2 2 2 2 2 2 2 3 3 4 3 3 2 1 1 1 1 1 1
2 3 4 4 4 4 5 5 5 5 6 5 5 5 4 4 4 5 5 5 4 3 2 1 2 2 2 2 2 2 2 3 3 4 4 3 2 2 1 1 1 1 1
2 3 4 5 4 3 4 5 5 6 6 6 6 6 6 5 5 6 6 6 5 3 2 1 1 1 1 2 2 2 2 2 3 4 4 4 3 2 1 1 1 1 1
2 3 4 4 4 3 4 5 6 6 5 6 7 7 7 7 6 7 8 7 6 5 3 2 1 1 1 2 2 2 2 2 3 3 4 4 3 3 2 2 1 1 1
2 2 3 3 3 3 3 4 5 5 4 4 5 7 8 8 8 8 9 8 8 7 5 3 2 1 2 2 2 3 3 3 3 3 4 4 4 3 3 2 1 1 1
2 2 2 2 2 2 2 3 4 4 4 3 4 6 8 9 9 9 10 10 8 8 7 5 3 2 2 2 2 3 3 3 3 3 3 3 3 3 3 2 2 1 1
2 2 2 2 2 2 2 2 3 3 3 3 3 5 8 9 9 10 11 10 10 9 8 5 3 2 2 2 2 2 3 3 3 3 3 3 3 3 2 2 2 1 1
2 2 2 2 2 2 2 2 3 3 3 3 3 4 6 8 10 10 9 10 10 9 7 4 2 2 1 1 1 2 3 3 3 3 2 2 2 2 2 2 2 1 1
2 2 2 3 3 3 2 2 2 3 3 4 3 3 4 6 9 9 8 7 8 8 6 3 2 1 1 1 1 2 2 2 2 2 2 2 1 1 1 2 2 1 1
2 2 2 3 3 3 2 2 2 2 2 3 4 3 3 5 8 9 7 6 6 6 4 2 1 1 1 1 1 1 1 1 1 1 1 1 1 1 1 2 2 1 1
2 2 2 2 2 2 2 2 2 2 2 2 3 3 4 6 8 8 8 6 5 4 3 1 1 1 1 1 1 1 1 0 0 0 0 0 0 0 1 2 2 1 1
1 1 1 1 1 2 2 2 2 2 2 2 2 3 5 6 8 8 8 7 5 3 2 1 1 1 1 0 0 0 0 0 0 0 0 0 0 0 1 1 2 2 1
1 1 1 1 1 1 1 1 1 1 1 1 2 3 4 6 7 7 8 6 4 2 1 1 1 1 1 0 0 0 0 0 0 0 0 0 0 0 0 1 1 1 1
1 1 1 1 1 1 1 1 1 1 1 1 1 1 2 4 5 6 6 4 3 2 1 1 1 1 1 0 0 0 0 0 0 0 0 0 0 0 0 0 1 1 1
1 1 1 1 1 1 1 1 1 1 1 1 1 1 1 3 4 4 4 4 3 2 2 2 1 1 1 0 0 0 0 0 0 0 0 0 0 0 0 0 0 0 0
1 2 2 2 1 1 1 1 1 1 1 1 1 1 1 2 2 3 3 3 3 3 2 2 1 1 1 0 0 0 0 0 0 0 0 0 0 0 0 0 0 0 0
2 2 2 2 1 1 1 1 1 1 1 1 1 1 1 1 2 2 2 2 3 2 2 1 1 1 1 0 0 0 0 0 0 0 0 0 0 0 0 1 1 1 1
2 2 1 1 1 1 1 1 1 1 1 1 1 1 1 1 1 1 1 1 1 1 1 1 1 1 1 0 0 0 0 0 0 1 1 1 0 0 0 1 1 1 1
1 1 1 1 1 1 1 1 1 1 1 1 1 1 1 1 1 1 1 1 1 1 1 1 1 1 1 0 0 0 0 0 1 1 1 1 0 0 0 0 1 1 1
1 1 1 1 2 1 1 1 1 1 1 1 1 1 2 2 2 2 2 2 2 1 1 1 1 1 1 0 0 0 0 0 1 1 1 1 0 0 0 0 0 0 0
1 1 1 1 1 1 1 1 1 1 1 1 1 2 2 2 2 2 2 2 2 2 1 1 1 1 0 0 0 0 0 0 0 1 1 1 0 0 0 0 0 0 0
1 1 1 1 1 1 1 1 1 1 1 1 1 1 2 2 3 3 3 2 2 2 2 2 1 1 1 0 0 0 0 0 0 0 0 0 0 0 0 0 0 0 0
1 1 1 1 1 1 1 1 1 2 2 2 1 1 1 1 2 3 3 2 2 3 2 2 1 1 0 0 0 0 0 0 0 0 0 0 0 0 0 0 0 1 1
1 1 1 1 1 1 1 1 2 2 2 2 1 1 1 1 2 3 3 2 2 2 1 1 1 0 0 0 0 0 0 0 0 0 0 0 0 0 0 0 1 1 1
Wind_Speed
5 5 5 6 6 6 6 6 6 6 5 4 4 4 3 3 3 3 3 3 3 3 3 3 4 4 3 3 3 3 3 2 2 2 2 2 3 2 2 2 2 3 3
6 6 6 6 7 7 6 7 7 7 7 4 3 2 2 2 2 2 3 3 3 3 3 3 3 3 3 3 3 3 3 2 2 2 2 3 4 3 3 2 3 3 2
6 6 7 7 7 7 7 6 7 7 6 6 4 4 3 3 3 4 3 3 3 3 2 3 3 3 4 3 4 4 4 3 3 2 3 3 2 2 3 3 3 3 2
6 6 6 7 7 7 7 7 7 7 6 6 5 5 4 3 3 2 3 3 3 3 3 3 3 3 3 3 4 4 4 4 3 2 3 3 3 3 2 4 3 3 3
5 6 6 6 6 7 6 6 6 6 6 6 5 5 5 4 3 3 4 4 4 4 4 4 3 4 3 3 3 3 4 3 3 3 3 3 3 5 4 3 3 4 3
4 4 5 6 6 6 6 6 6 6 6 6 6 6 5 4 3 4 4 4 3 3 4 4 3 4 3 3 3 3 4 3 4 4 4 4 3 4 4 4 4 4 2
4 4 5 6 6 6 6 6 6 6 6 6 6 6 6 6 6 5 4 4 3 3 3 3 3 3 3 3 3 3 4 4 4 5 4 4 4 3 4 5 4 4 3
3 4 5 5 5 6 6 6 6 5 5 6 5 5 5 5 4 4 4 3 3 2 2 3 3 3 3 3 3 3 3 3 4 4 4 4 4 4 4 4 4 5 4
3 4 5 5 5 5 5 6 6 5 5 5 5 4 4 4 4 4 4 4 3 3 3 3 3 4 3 3 3 2 3 2 3 3 4 4 3 3 3 4 4 5 5
4 3 4 5 5 5 5 5 5 5 5 5 4 3 4 4 4 4 3 3 3 3 3 3 3 3 3 4 4 3 3 2 2 2 2 3 3 3 3 3 3 4 5
3 4 4 4 5 5 5 5 5 4 4 4 4 3 3 3 4 4 4 4 3 3 4 4 4 4 4 3 3 3 3 3 3 3 3 4 3 3 3 3 3 3 4
3 4 4 4 5 5 5 5 5 5 4 4 4 4 3 3 3 4 3 3 3 4 4 4 3 3 3 3 3 3 3 3 4 3 3 3 3 3 4 3 3 3 4
4 4 4 4 5 5 5 5 5 5 4 4 4 3 3 3 4 3 3 3 3 3 3 3 3 3 3 3 3 3 3 3 3 3 3 4 3 4 3 4 4 4 3
4 4 4 4 4 5 5 5 5 4 4 4 3 3 3 3 3 3 3 3 3 3 3 3 3 3 3 3 3 3 3 3 4 4 4 4 4 4 4 4 4 4 4
5 4 4 3 4 4 4 5 5 4 4 3 3 3 3 3 3 2 2 2 3 3 3 4 4 3 3 2 2 3 3 4 4 4 4 4 3 3 4 4 3 4 5
5 4 4 4 4 4 5 5 4 4 4 4 3 2 3 3 3 3 2 2 2 2 3 4 3 3 2 2 1 3 4 4 5 4 4 4 4 4 5 5 5 5 6
5 5 4 4 4 4 4 4 4 4 4 3 3 3 3 3 3 3 2 2 2 2 2 3 3 2 2 3 3 4 4 5 4 4 4 4 2 4 4 5 7 7 7
4 4 4 4 4 4 4 4 4 4 4 4 4 3 3 3 3 3 2 2 2 2 2 2 3 2 2 4 3 4 5 5 4 4 4 4 4 3 4 5 5 6 5
3 4 4 4 4 3 4 4 4 4 4 4 4 4 4 4 3 3 3 2 2 2 2 2 3 3 3 4 4 5 5 4 4 5 4 4 4 2 3 6 6 6 5
3 3 4 4 4 3 3 4 5 5 5 4 4 3 4 4 4 3 3 2 3 3 3 2 2 3 3 4 5 6 4 4 4 4 4 4 4 3 4 6 6 7 6
3 3 3 3 3 3 4 5 5 5 4 4 3 3 3 3 4 3 3 3 3 3 3 3 3 3 3 5 5 5 4 4 4 3 3 2 5 5 6 7 7 6 7
3 3 3 3 2 3 4 5 5 4 4 4 4 3 3 3 3 4 4 4 4 4 4 4 4 3 4 4 5 6 6 6 5 4 3 1 4 5 7 7 5 6 7
3 3 3 3 3 3 4 5 5 5 5 5 4 4 4 3 4 4 5 5 5 4 4 4 4 3 3 4 6 8 7 7 6 3 2 2 4 6 7 9 8 7 6
3 3 4 4 3 4 5 6 5 5 5 5 5 5 4 4 4 4 4 5 4 4 4 4 4 3 3 2 2 3 5 6 6 5 4 7 9 8 7 5 6 6 5
3 4 4 4 4 4 5 5 5 5 6 5 5 5 5 4 4 4 4 5 4 3 4 4 4 4 4 1 1 3 3 3 2 4 5 4 4 4 4 4 4 4 4
3 3 4 4 4 4 5 5 5 6 6 5 5 5 4 4 4 5 4 3 3 3 4 4 5 3 0 1 2 3 4 3 3 5 5 4 4 4 4 4 4 4 4
Wind_Direction
192 186 189 186 175 170 171 173 175 170 178 179 182 175 176 174 166 163 161 179 189 192 209 200 178 204 197 206 214 218 210 224 236 245 227 213 216 211 223 243 253 241 246
190 186 187 184 180 175 175 178 177 177 186 180 181 180 182 186 172 163 164 181 185 200 201 203 206 198 200 205 215 220 227 224 220 252 250 226 209 205 208 222 231 251 248
203 193 188 187 185 180 182 185 181 181 183 180 176 170 175 191 179 176 174 174 179 184 203 203 227 222 222 206 218 221 226 230 222 236 262 260 248 215 186 222 237 244 259
207 200 191 188 185 177 179 184 178 180 182 187 189 189 192 191 186 188 170 173 187 187 197 207 215 226 230 217 224 215 233 235 232 221 248 282 307 261 218 205 212 226 243
206 206 193 184 177 174 174 173 174 179 184 192 188 199 205 198 190 190 184 196 188 195 200 200 210 217 224 221 236 228 238 239 248 244 241 244 241 254 266 253 238 230 232
201 206 193 177 171 169 174 171 177 182 185 192 196 205 213 213 209 207 203 204 193 200 200 197 204 217 223 216 225 230 229 244 252 253 247 247 244 250 257 260 257 255 248
183 186 191 175 169 171 176 180 183 184 186 192 200 205 215 218 217 220 214 217 211 210 204 205 203 216 223 221 221 222 230 229 236 243 249 255 260 268 266 269 268 269 258
170 178 176 173 169 172 176 182 186 190 188 192 196 205 215 223 223 221 229 223 226 225 215 216 213 220 221 222 217 222 221 219 228 238 250 255 256 261 264 273 276 269 256
170 169 164 168 170 172 176 188 186 188 191 190 189 198 210 222 227 226 229 232 230 226 215 215 222 226 222 222 220 225 228 223 228 230 233 253 259 268 267 264 269 277 282
174 169 159 159 162 165 166 179 177 186 190 190 191 189 200 208 218 228 228 239 241 236 225 220 226 229 222 221 223 222 205 219 236 245 245 256 257 260 261 258 259 264 275
168 160 162 161 162 164 163 168 174 183 191 190 188 192 203 204 217 223 228 233 235 228 226 225 232 232 224 218 221 224 213 218 229 238 230 239 257 256 261 257 256 258 264
161 157 161 163 169 170 171 170 173 180 189 189 189 195 200 205 219 227 231 230 230 228 225 220 226 233 223 213 217 226 222 218 223 230 236 243 236 239 255 262 261 264 272
168 167 168 171 181 183 177 176 179 178 182 186 189 189 202 210 218 221 223 231 228 228 225 221 222 226 218 212 216 228 232 230 231 232 236 243 246 248 252 257 259 260 256
176 177 182 182 185 187 184 185 180 177 181 189 192 187 208 216 220 224 229 227 223 225 225 225 225 223 219 215 214 219 229 230 233 235 236 240 243 250 256 252 256 265 267
183 184 191 185 185 180 186 188 178 179 182 196 196 197 209 214 219 225 225 218 216 222 226 229 224 220 222 217 223 229 230 230 232 236 240 237 242 269 270 275 272 267 268
193 190 191 191 186 181 187 185 183 181 183 191 194 196 206 209 212 215 211 207 208 228 228 226 221 221 220 116 211 254 243 239 237 240 247 238 221 214 221 248 270 276 269
205 200 193 195 192 192 191 194 188 180 182 189 195 198 204 206 208 209 203 202 206 213 224 221 214 215 161 155 200 237 248 240 241 245 247 254 240 227 241 225 228 243 246
212 205 198 193 198 196 199 201 194 185 187 193 202 204 206 207 207 206 212 215 220 224 229 223 210 206 176 166 202 233 235 242 244 246 247 252 259 254 262 262 254 253 245
205 201 196 195 193 192 193 192 192 191 194 199 205 206 209 209 215 217 219 225 233 239 240 225 206 205 186 173 203 237 234 233 237 240 240 245 252 243 258 260 263 262 259
193 190 191 190 184 185 184 190 196 196 199 201 208 209 215 212 220 223 231 232 234 241 246 229 214 209 202 179 202 236 243 240 241 232 225 210 239 237 240 255 261 264 270
202 198 193 188 189 186 189 200 204 206 204 203 208 215 222 222 222 221 230 235 237 234 238 230 225 217 210 180 194 225 251 252 249 246 240 200 179 220 241 258 261 273 283
194 192 192 188 192 200 204 210 212 212 207 207 213 216 225 231 216 218 223 227 229 220 219 224 233 219 202 193 190 205 233 273 264 262 268 207 172 219 236 247 260 268 271
183 192 197 197 205 211 217 222 216 209 209 212 217 216 214 223 221 220 219 220 220 229 226 226 232 229 209 178 186 203 220 243 257 277 314 288 238 248 238 232 239 246 252
193 202 210 206 209 216 223 226 217 208 212 215 216 215 218 222 217 224 224 226 225 231 235 236 237 233 223 216 194 207 212 218 232 250 235 223 228 243 258 242 226 238 254
205 211 223 224 220 224 234 232 218 207 211 216 216 221 222 224 223 224 236 241 236 242 254 255 248 247 243 176 30 275 256 258 265 269 257 254 249 249 249 256 259 252 241
209 217 231 235 227 228 233 227 218 210 211 217 218 224 226 219 225 221 225 227 244 202 225 259 278 270 296 145 216 252 266 264 246 252 256 263 269 272 278 280 274 263 259